Regional Weather Roundup
Issued by NWS

Home | Current Version | Previous Version | Graphics & Text | Print | Product List | Glossary On
Versions: 1 2 3 4 5 6 7 8 9 10 11 12 13 14 15 16 17 18 19 20 21 22 23 24 25 26 27 28 29 30 31 32 33 34 35 36 37 38 39 40 41 42 43 44 45 46 47 48 49 50
000
ASUS45 KBOU 092207
RWRCO

WEATHER ROUNDUP FOR COLORADO
NATIONAL WEATHER SERVICE DENVER/BOULDER CO
300 PM MST FRI DEC 09 2016

NOTE: "FAIR" INDICATES FEW OR NO CLOUDS BELOW 12000 FEET WITH NO
SIGNIFICANT WEATHER AND/OR OBSTRUCTIONS TO VISIBILITY.

COZ001>005-013-030-031-092300-
...NORTHWEST COLORADO...

CITY           SKY/WX    TMP DP  RH WIND       PRES   REMARKS
CRAIG          CLOUDY    36  27  69 E6        30.20F
HAYDEN         FAIR      30  23  74 SE9       30.20F WCI  22
MEEKER         CLOUDY    39  24  55 CALM      30.20F
MOUNT WERNER   NOT AVBL
STEAMBOAT SPGS CLOUDY    27  25  91 CALM      30.21F
WALDEN           N/A     34  23  64 SW10      30.17S WCI  26
$$

COZ006>008-011-092300-
...WEST CENTRAL VALLEYS...

CITY           SKY/WX    TMP DP  RH WIND       PRES   REMARKS
GRAND JUNCTION PTSUNNY   37  16  42 CALM      30.27S
MONTROSE       CLOUDY    39  19  44 NE5       30.27F
EAGLE          CLOUDY    36  27  69 CALM      30.27S
RIFLE          CLOUDY    33  19  56 CALM      30.28F
DELTA          NOT AVBL
NUCLA          FAIR      45  19  36 CALM      30.29S
$$

COZ017>023-064>068-092300-
...SOUTHWEST COLORADO...

CITY           SKY/WX    TMP DP  RH WIND       PRES   REMARKS
DURANGO        FAIR      44  19  36 SW7       30.27S
CORTEZ         FAIR      47  25  42 CALM      30.27F
PAGOSA SPRINGS FAIR      40  18  41 CALM      30.27S
TELLURIDE      NOT AVBL
WOLF CREEK PAS FAIR      28  18  64 S8        30.36R WCI  20
$$

COZ009-010-012-014-032>034-037-058>063-092300-
...CENTRAL COLORADO...

CITY           SKY/WX    TMP DP  RH WIND       PRES   REMARKS
ASPEN          CLOUDY    32  27  81 CALM      30.23F
BUENA VISTA    CLOUDY    42  18  37 NW8G20    30.18S
COPPER MTN     NOT AVBL
BERTHOUD PASS  SNOW      16   5  62 NW25G36   30.20F VSB<1/4 WCI  -3
COTTONWOOD PAS FAIR      36  19  51 SW41G58   30.15R
GUNNISON       FAIR      30  23  75 S3        30.27F
KREMMLING      CLOUDY    41  28  60 W8        30.22S
LEADVILLE      CLOUDY    28  19  69 N9        30.23R WCI  19
MONARCH PASS     N/A     23  21  93 W36G45    30.34S WCI   4
SALIDA         FAIR      48  20  32 SW15G29   30.21F
SUNLIGHT       FLURRIES  23  21  93 SW12G24   30.29S WCI  12
WILKERSON PASS FAIR      28  16  59 W16G30    30.20R WCI  17
$$

COZ069>075-092300-
...SAN LUIS VALLEY/SANGRE DE CRISTO MOUNTAINS...

CITY           SKY/WX    TMP DP  RH WIND       PRES   REMARKS
ALAMOSA        FAIR      41  18  39 CALM      30.23F
LA VETA PASS   FAIR      34  21  60 NE30G44   30.19F WCI  20
SAGUACHE       FAIR      36  16  44 SE10      30.23S
$$

COZ035-036-038>040-092300-
...NORTHERN COLORADO FRONT RANGE...

CITY           SKY/WX    TMP DP  RH WIND       PRES   REMARKS
DENVER INTL AP FAIR      45  29  53 NE7       30.08R
DMNS CITY PARK   N/A     51  23  33 NE10G16   30.07R
AURORA         PTSUNNY   48  26  41 NE8       30.09R
FRONT RANGE AP MOSUNNY   50  30  46 W8        30.10R
ERIE MUNI ARPT FAIR      31  23  71 NW5       30.08R WCI  27
BOULDER MUN AP FAIR      36  25  64 E5        30.06R
CENTENNIAL     PTSUNNY   49  23  36 NE3       30.08R
BROOMFIELD     MOSUNNY   46  25  42 E7        30.07R
FORT COLLINS   FAIR      30  19  64 CALM      30.11R
LONGMONT       FAIR      31  21  66 SE5       30.10R WCI  26
$$

COZ041-046-047-076>085-087-088-092300-
...PIKES PEAK/PALMER DIVIDE AND SOUTHERN FOOTHILLS...

CITY           SKY/WX    TMP DP  RH WIND       PRES   REMARKS
COLO. SPRINGS  PTSUNNY   50  25  37 S8        30.11R
A. F. ACADEMY  FAIR      48  23  36 E5        30.09R
SCHRIEVER AFB  NOT AVBL
ELLICOTT       FAIR     N/A N/A N/A S9        30.10R
FALCON         PTSUNNY   46  25  43 S7        30.13R
FORT CARSON    FAIR      51  25  36 SE13      30.08R
LIMON          FAIR      50  21  32 E9        30.09S
MONUMENT HILL  PTSUNNY   43  23  45 S6        30.12R
TRINIDAD       FAIR      59  17  19 E5        30.11R
$$

COZ042>045-048>051-090-091-092300-
...NORTHEAST COLORADO...

CITY           SKY/WX    TMP DP  RH WIND       PRES   REMARKS
GREELEY ARPT   FAIR      33  20  58 S6        30.12R WCI  28
AKRON          FAIR      34  20  56 E7        30.13R WCI  28
BURLINGTON     FAIR      43  16  33 S7        30.14R
WRAY           PTSUNNY   34  19  55 CALM      30.18S
STERLING       FAIR      32  21  64 NE6       30.16R WCI  26
HOLYOKE        FAIR      34  19  55 N5        30.20R WCI  30
FORT MORGAN    FAIR      34  20  56 E3        30.14R
$$

COZ086-089-092>099-092300-
...SOUTHEAST COLORADO...

CITY           SKY/WX    TMP DP  RH WIND       PRES   REMARKS
PUEBLO         FAIR      43  15  32 SE7       30.09R
LA JUNTA       FAIR      38  11  32 E8        30.12S
LAMAR          FAIR      40  13  33 SE3       30.14R
SPRINGFIELD      N/A     45  22  40 S8        30.14R
$$



USA.gov is the U.S. government's official web portal to all federal, state and local government web resources and services.